TimeMDT,TemperatureF,Dew PointF,Humidity,Sea Level PressureIn,VisibilityMPH,Wind Direction,Wind SpeedMPH,Gust SpeedMPH,PrecipitationIn,Events,Conditions,WindDirDegrees,DateUTC
12:09 AM,21.2,19.4,93,30.28,0.2,North,-9999.0,-,N/A,Fog,Light Freezing Fog,0,2013-09-28 06:09:00
12:29 AM,21.2,19.4,93,30.27,0.5,North,-9999.0,-,N/A,Fog,Light Freezing Fog,0,2013-09-28 06:29:00
12:49 AM,21.2,17.6,86,30.27,0.5,North,-9999.0,-,N/A,Fog,Light Freezing Fog,0,2013-09-28 06:49:00
1:09 AM,19.4,17.6,93,30.27,0.8,North,-9999.0,-,N/A,,Overcast,0,2013-09-28 07:09:00
1:29 AM,19.4,17.6,93,30.28,1.2,North,-9999.0,-,N/A,,Overcast,0,2013-09-28 07:29:00
1:49 AM,19.4,17.6,93,30.28,1.2,North,-9999.0,-,N/A,,Overcast,0,2013-09-28 07:49:00
2:09 AM,19.4,17.6,93,30.27,1.5,North,-9999.0,-,N/A,,Overcast,0,2013-09-28 08:09:00
2:29 AM,19.4,17.6,93,30.28,3.0,North,-9999.0,-,N/A,,Overcast,0,2013-09-28 08:29:00
2:49 AM,19.4,15.8,86,30.27,4.0,North,-9999.0,-,N/A,,Overcast,0,2013-09-28 08:49:00
3:09 AM,17.6,15.8,93,30.27,10.0,North,-9999.0,-,N/A,,Mostly Cloudy,0,2013-09-28 09:09:00
3:29 AM,17.6,15.8,93,30.27,5.0,North,-9999.0,-,N/A,,Scattered Clouds,0,2013-09-28 09:29:00
3:49 AM,17.6,14.0,86,30.27,10.0,North,-9999.0,-,N/A,,Scattered Clouds,0,2013-09-28 09:49:00
4:09 AM,17.6,14.0,86,30.30,10.0,North,-9999.0,-,N/A,,Clear,0,2013-09-28 10:09:00
4:29 AM,17.6,14.0,86,30.30,5.0,North,-9999.0,-,N/A,,Scattered Clouds,0,2013-09-28 10:29:00
4:49 AM,17.6,14.0,86,30.31,2.0,North,-9999.0,-,N/A,,Overcast,0,2013-09-28 10:49:00
5:09 AM,17.6,14.0,86,30.31,2.0,North,-9999.0,-,N/A,,Overcast,0,2013-09-28 11:09:00
5:29 AM,17.6,14.0,86,30.33,2.5,North,-9999.0,-,N/A,,Overcast,0,2013-09-28 11:29:00
5:49 AM,17.6,15.8,93,30.34,2.0,North,-9999.0,-,N/A,,Overcast,0,2013-09-28 11:49:00
6:09 AM,17.6,15.8,93,30.35,2.5,North,-9999.0,-,N/A,,Overcast,0,2013-09-28 12:09:00
6:29 AM,17.6,14.0,86,30.36,4.0,North,-9999.0,-,N/A,,Overcast,0,2013-09-28 12:29:00
6:49 AM,17.6,14.0,86,30.37,4.0,North,-9999.0,-,N/A,,Mostly Cloudy,0,2013-09-28 12:49:00
7:09 AM,17.6,14.0,86,30.38,4.0,North,-9999.0,-,N/A,,Mostly Cloudy,0,2013-09-28 13:09:00
7:29 AM,17.6,14.0,86,30.39,3.0,North,-9999.0,-,N/A,,Mostly Cloudy,0,2013-09-28 13:29:00
7:49 AM,17.6,14.0,86,30.40,2.5,North,-9999.0,-,N/A,,Mostly Cloudy,0,2013-09-28 13:49:00
8:09 AM,17.6,15.8,93,30.41,2.5,North,-9999.0,-,N/A,,Mostly Cloudy,0,2013-09-28 14:09:00
8:29 AM,19.4,15.8,86,30.42,5.0,North,-9999.0,-,N/A,,Scattered Clouds,0,2013-09-28 14:29:00
8:49 AM,19.4,17.6,93,30.44,4.0,North,-9999.0,-,N/A,,Scattered Clouds,0,2013-09-28 14:49:00
9:09 AM,19.4,17.6,93,30.44,10.0,North,-9999.0,-,N/A,,Mostly Cloudy,0,2013-09-28 15:09:00
9:29 AM,21.2,19.4,93,30.45,7.0,North,-9999.0,-,N/A,,Mostly Cloudy,0,2013-09-28 15:29:00
9:49 AM,21.2,19.4,93,30.46,10.0,North,-9999.0,-,N/A,,Scattered Clouds,0,2013-09-28 15:49:00
10:09 AM,21.2,19.4,93,30.48,10.0,North,-9999.0,-,N/A,,Clear,0,2013-09-28 16:09:00
10:29 AM,23.0,21.2,93,30.48,10.0,North,-9999.0,-,N/A,,Clear,0,2013-09-28 16:29:00
10:49 AM,24.8,23.0,93,30.49,10.0,North,-9999.0,-,N/A,,Clear,0,2013-09-28 16:49:00
11:05 AM,26.6,23.0,86,30.49,10.0,North,-9999.0,-,N/A,,Clear,0,2013-09-28 17:05:00
11:29 AM,26.6,24.8,93,30.50,10.0,North,-9999.0,-,N/A,,Clear,0,2013-09-28 17:29:00
11:49 AM,28.4,26.6,93,30.51,10.0,North,-9999.0,-,N/A,,Clear,0,2013-09-28 17:49:00
12:09 PM,28.4,26.6,93,30.51,10.0,North,-9999.0,-,N/A,,Clear,0,2013-09-28 18:09:00
12:28 PM,28.4,26.6,93,30.52,10.0,North,-9999.0,-,N/A,,Clear,0,2013-09-28 18:28:00
12:49 PM,28.4,26.6,93,30.53,10.0,North,-9999.0,-,N/A,,Clear,0,2013-09-28 18:49:00
1:09 PM,28.4,26.6,93,30.53,10.0,North,-9999.0,-,N/A,,Clear,0,2013-09-28 19:09:00
1:29 PM,28.4,26.6,93,30.53,10.0,North,-9999.0,-,N/A,,Clear,0,2013-09-28 19:29:00
1:48 PM,32.0,26.6,80,30.54,10.0,North,-9999.0,-,N/A,,Clear,0,2013-09-28 19:48:00
2:09 PM,32.0,28.4,87,30.55,10.0,North,-9999.0,-,N/A,,Clear,0,2013-09-28 20:09:00
2:29 PM,32.0,26.6,80,30.55,10.0,North,-9999.0,-,N/A,,Clear,0,2013-09-28 20:29:00
2:36 PM,33.8,26.6,75,30.55,10.0,North,-9999.0,-,N/A,,Clear,0,2013-09-28 20:36:00
3:06 PM,35.6,26.6,70,30.56,10.0,North,-9999.0,-,N/A,,Clear,0,2013-09-28 21:06:00
3:29 PM,35.6,26.6,70,30.55,10.0,North,-9999.0,-,N/A,,Clear,0,2013-09-28 21:29:00
3:49 PM,35.6,23.0,60,30.56,10.0,North,-9999.0,-,N/A,,Clear,0,2013-09-28 21:49:00
4:07 PM,37.4,24.8,60,30.56,10.0,North,-9999.0,-,N/A,,Clear,0,2013-09-28 22:07:00
4:29 PM,35.6,23.0,60,30.56,10.0,North,-9999.0,-,N/A,,Clear,0,2013-09-28 22:29:00
4:49 PM,35.6,21.2,56,30.56,10.0,North,-9999.0,-,N/A,,Clear,0,2013-09-28 22:49:00
5:09 PM,35.6,21.2,56,30.57,10.0,North,-9999.0,-,N/A,,Clear,0,2013-09-28 23:09:00
5:29 PM,35.6,21.2,56,30.57,10.0,North,-9999.0,-,N/A,,Clear,0,2013-09-28 23:29:00
5:49 PM,35.6,19.4,52,30.57,10.0,North,-9999.0,-,N/A,,Clear,0,2013-09-28 23:49:00
6:09 PM,35.6,19.4,52,30.57,10.0,North,-9999.0,-,N/A,,Clear,0,2013-09-29 00:09:00
6:29 PM,35.6,21.2,56,30.57,10.0,North,-9999.0,-,N/A,,Clear,0,2013-09-29 00:29:00
6:49 PM,33.8,21.2,60,30.57,10.0,North,-9999.0,-,N/A,,Clear,0,2013-09-29 00:49:00
7:08 PM,33.8,19.4,56,30.57,10.0,North,-9999.0,-,N/A,,Clear,0,2013-09-29 01:08:00
7:29 PM,32.0,21.2,64,30.58,10.0,North,-9999.0,-,N/A,,Clear,0,2013-09-29 01:29:00
7:49 PM,32.0,21.2,64,30.58,10.0,North,-9999.0,-,N/A,,Clear,0,2013-09-29 01:49:00
8:09 PM,32.0,21.2,64,30.58,10.0,North,-9999.0,-,N/A,,Clear,0,2013-09-29 02:09:00
8:29 PM,32.0,21.2,64,30.58,10.0,North,-9999.0,-,N/A,,Clear,0,2013-09-29 02:29:00
8:49 PM,32.0,21.2,64,30.59,10.0,North,-9999.0,-,N/A,,Clear,0,2013-09-29 02:49:00
9:09 PM,32.0,21.2,64,30.59,10.0,North,-9999.0,-,N/A,,Clear,0,2013-09-29 03:09:00
9:29 PM,32.0,19.4,60,30.58,10.0,North,-9999.0,-,N/A,,Clear,0,2013-09-29 03:29:00
9:49 PM,32.0,19.4,60,30.59,10.0,North,-9999.0,-,N/A,,Clear,0,2013-09-29 03:49:00
10:09 PM,30.2,23.0,75,30.59,10.0,North,-9999.0,-,N/A,,Clear,0,2013-09-29 04:09:00
10:29 PM,30.2,23.0,75,30.58,10.0,North,-9999.0,-,N/A,,Clear,0,2013-09-29 04:29:00
10:49 PM,30.2,24.8,80,30.58,10.0,North,-9999.0,-,N/A,,Clear,0,2013-09-29 04:49:00
11:09 PM,32.0,24.8,75,30.58,10.0,North,-9999.0,-,N/A,,Clear,0,2013-09-29 05:09:00
11:29 PM,32.0,24.8,75,30.58,10.0,North,-9999.0,-,N/A,,Clear,0,2013-09-29 05:29:00
11:49 PM,30.2,23.0,75,30.58,10.0,North,-9999.0,-,N/A,,Clear,0,2013-09-29 05:49:00